sat.trackr.live / text

‹ back to catalog

STARLINK-2501

NORAD 48330 · 2021-036BG

PAYLOAD ACTIVE UNKNOWN

§ Identity

Operator
Country
US
Launch date
2021-04-29
Launch site
AFETR
Launch vehicle
Mass (kg)
RCS (m²)

Purposes: comms

External: N2YO · Heavens-Above · Gunter

§ Orbital elements

Epoch: 2026-05-25T04:02:58.397280Z

Period
94.07 min
Inclination
53.1590°
Eccentricity
0.0001274
Mean motion
15.30791543 rev/d
Perigee alt
472.6 km
Apogee alt
474.3 km
Semi-major
6,851.6 km
B*
4.8926e-3
RAAN
105.7682°
Arg perigee
87.0262°
Mean anomaly
273.0885°
Rev number
27,975

§ Raw data

STARLINK-25011 48330U 21036BG  26145.16873145  .00150235  00000+0  48926-2 0  99992 48330  53.1590 105.7682 0001274  87.0262 273.0885 15.30791543279752

JSON: /api/v1/satellites/48330 · /tle

For live sub-satellite position, see the globe view (requires WebGL).

§ Visibility from observer

Set your observer location to see the next 7 days of passes ≥ 10°. The values pass through the URL so the page stays shareable.

No JS? Fill the form by hand. The geolocation button needs JavaScript.